Weather History for Greenville Downtown, SC

Change the Weather History Date:

Saturday, March 23, 2013

  Actual Average Record
Temperature  
Mean Temperature 46 °F -  
Max Temperature 50 °F 63 °F 79 °F (2007)
Min Temperature 41 °F 43 °F 28 °F (2004)
Degree Days  
Heating Degree Days 20    
Moisture  
Dew Point 39 °F    
Average Humidity 80    
Maximum Humidity 93    
Minimum Humidity 49    
Precipitation  
Precipitation 0.08 in - - ()
Sea Level Pressure  
Sea Level Pressure 29.97 in    
Wind  
Wind Speed 4 mph (East)    
Max Wind Speed 7 mph    
Max Gust Speed -    
Visibility 9 miles    
Events Rain    
Averages and records for this station are not official NWS values.
T = Trace of Precipitation, MM = Missing Value Source: NWS Daily Summary

Daily Weather History Graph

Daily Weather History Graph

Search for Another Location

Airport:

Trip Planner

Search our weather history database for the weather conditions in past years. The results will help you decide how hot, cold, wet, or windy it might be!

Date:

Astronomy

Mar. 23, 2013 Rise Set
Actual Time 7:28 AM EDT 7:43 PM EDT
Civil Twilight 7:03 AM EDT 8:08 PM EDT
Nautical Twilight 6:33 AM EDT 8:38 PM EDT
Astronomical Twilight 6:03 AM EDT 9:08 PM EDT
Moon 4:16 PM EDT (3/23) 4:56 AM EDT (3/23)
Length of Visible Light 13h 05m
Length of Day
12h 15m
Waxing Gibbous, 85% of the Moon is Illuminated
Mar 23
Waxing Gibbous
Mar 27
Full
Apr 3
Last Quarter
Apr 10
New
Apr 18
First Quarter

Hourly Weather History & Observations

Time (EDT) Temp. Windchill Dew Point Humidity Pressure Visibility Wind Dir Wind Speed Gust Speed Precip Events Conditions
12:53 AM 44.1 °F 42.5 °F 27.0 °F 51% 30.03 in 10.0 mi West 3.5 mph - N/A   Overcast
1:53 AM 44.1 °F 41.5 °F 27.0 °F 51% 30.02 in 10.0 mi SW 4.6 mph - N/A   Partly Cloudy
2:53 AM 44.1 °F 42.5 °F 27.0 °F 51% 30.01 in 10.0 mi SW 3.5 mph - N/A   Overcast
3:53 AM 45.0 °F 43.5 °F 27.0 °F 49% 29.99 in 10.0 mi West 3.5 mph - N/A   Overcast
4:53 AM 45.0 °F 43.5 °F 28.9 °F 53% 29.98 in 10.0 mi WNW 3.5 mph - 0.00 in   Overcast
5:53 AM 45.0 °F 43.5 °F 28.9 °F 53% 29.97 in 10.0 mi SSW 3.5 mph - N/A   Overcast
6:53 AM 45.0 °F 41.2 °F 30.0 °F 56% 30.01 in 10.0 mi WSW 6.9 mph - N/A   Overcast
7:39 AM 42.8 °F 40.1 °F 35.6 °F 76% 30.01 in 7.0 mi West 4.6 mph - 0.04 in Rain Light Rain
7:53 AM 41.0 °F 39.0 °F 36.0 °F 82% 30.02 in 9.0 mi West 3.5 mph - 0.05 in Rain Light Rain
8:16 AM 41.0 °F - 37.4 °F 87% 30.01 in 5.0 mi Calm Calm - 0.02 in Rain Rain
8:53 AM 41.0 °F 37.1 °F 37.9 °F 89% 30.04 in 7.0 mi SW 5.8 mph - 0.02 in Rain Light Rain
9:05 AM 41.0 °F 38.0 °F 39.2 °F 93% 30.03 in 6.0 mi SW 4.6 mph - 0.00 in Rain Light Rain
9:53 AM 42.1 °F - 39.9 °F 92% 30.03 in 6.0 mi Calm Calm - 0.01 in   Overcast
10:11 AM 42.8 °F - 39.2 °F 87% 30.03 in 7.0 mi Calm Calm - N/A   Overcast
10:53 AM 44.1 °F 42.5 °F 39.9 °F 85% 30.01 in 9.0 mi North 3.5 mph - N/A   Overcast
11:24 AM 44.6 °F 43.1 °F 41.0 °F 87% 30.00 in 7.0 mi NNE 3.5 mph - N/A   Overcast
11:53 AM 45.0 °F - 41.0 °F 86% 30.01 in 7.0 mi Calm Calm - N/A   Overcast
12:00 PM 44.6 °F 42.2 °F 41.0 °F 87% 30.01 in 7.0 mi NE 4.6 mph - N/A   Overcast
12:53 PM 45.0 °F 43.5 °F 41.0 °F 86% 30.01 in 9.0 mi NE 3.5 mph - N/A   Overcast
1:32 PM 44.6 °F 42.2 °F 42.8 °F 93% 29.99 in 4.0 mi ENE 4.6 mph - 0.00 in Rain Light Rain
1:53 PM 45.0 °F 43.5 °F 42.1 °F 90% 29.99 in 7.0 mi ENE 3.5 mph - 0.00 in   Overcast
2:27 PM 46.4 °F 44.3 °F 42.8 °F 87% 29.96 in 5.0 mi East 4.6 mph - N/A   Overcast
2:53 PM 46.9 °F - 44.1 °F 90% 29.95 in 8.0 mi East 5.8 mph - N/A   Overcast
3:53 PM 48.9 °F - 44.1 °F 83% 29.94 in 10.0 mi SE 5.8 mph - N/A   Overcast
4:53 PM 50.0 °F - 44.1 °F 80% 29.91 in 10.0 mi East 4.6 mph - N/A   Overcast
5:39 PM 50.0 °F - 44.6 °F 82% 29.92 in 10.0 mi East 4.6 mph - N/A   Overcast
5:53 PM 50.0 °F - 44.1 °F 80% 29.91 in 10.0 mi East 5.8 mph - N/A   Overcast
6:10 PM 50.0 °F - 44.6 °F 82% 29.90 in 10.0 mi East 3.5 mph - N/A   Overcast
6:36 PM 50.0 °F - 44.6 °F 82% 29.91 in 10.0 mi Calm Calm - N/A   Overcast
6:53 PM 50.0 °F - 44.1 °F 80% 29.93 in 10.0 mi SE 3.5 mph - N/A   Mostly Cloudy
7:11 PM 48.2 °F - 44.6 °F 87% 29.92 in 10.0 mi Calm Calm - N/A   Scattered Clouds
7:53 PM 48.0 °F - 44.1 °F 86% 29.94 in 10.0 mi SSE 4.6 mph - N/A   Mostly Cloudy
8:53 PM 46.9 °F - 43.0 °F 86% 29.93 in 10.0 mi ESE 3.5 mph - N/A   Mostly Cloudy
9:53 PM 46.0 °F 43.1 °F 43.0 °F 89% 29.94 in 10.0 mi East 5.8 mph - N/A   Mostly Cloudy
10:05 PM 46.4 °F 43.5 °F 42.8 °F 87% 29.93 in 10.0 mi East 5.8 mph - N/A   Scattered Clouds
10:35 PM 44.6 °F 41.4 °F 42.8 °F 93% 29.92 in 10.0 mi ENE 5.8 mph - N/A   Mostly Cloudy
10:53 PM 45.0 °F 41.8 °F 42.1 °F 90% 29.92 in 9.0 mi East 5.8 mph - N/A   Overcast
11:27 PM 44.6 °F 42.2 °F 42.8 °F 93% 29.91 in 9.0 mi ENE 4.6 mph - N/A   Mostly Cloudy
11:53 PM 45.0 °F 41.8 °F 42.1 °F 90% 29.91 in 10.0 mi NE 5.8 mph - N/A   Overcast